Weather History for Danbury, CT

Change the Weather History Date:

Saturday, March 30, 2013

  Actual Average Record
Temperature  
Mean Temperature 42 °F -  
Max Temperature 55 °F 53 °F 80 °F (1977)
Min Temperature 28 °F 33 °F 14 °F (1970)
Degree Days  
Heating Degree Days 24    
Moisture  
Dew Point 23 °F    
Average Humidity 53    
Maximum Humidity 85    
Minimum Humidity 23    
Precipitation  
Precipitation 0.00 in - - ()
Sea Level Pressure  
Sea Level Pressure 30.11 in    
Wind  
Wind Speed 3 mph (WNW)    
Max Wind Speed 9 mph    
Max Gust Speed 16 mph    
Visibility 10 miles    
Events      
Averages and records for this station are not official NWS values.
T = Trace of Precipitation, MM = Missing Value Source: NWS Daily Summary

Daily Weather History Graph

Daily Weather History Graph

Search for Another Location

Airport:

Trip Planner

Search our weather history database for the weather conditions in past years. The results will help you decide how hot, cold, wet, or windy it might be!

Date:

Astronomy

Mar. 30, 2013 Rise Set
Actual Time 6:40 AM EDT 7:17 PM EDT
Civil Twilight 6:12 AM EDT 7:45 PM EDT
Nautical Twilight 5:39 AM EDT 8:18 PM EDT
Astronomical Twilight 5:05 AM EDT 8:52 PM EDT
Moon 11:23 PM EDT (3/30) 8:30 AM EDT (3/30)
Length of Visible Light 13h 32m
Length of Day
12h 37m
Waning Gibbous, 86% of the Moon is Illuminated
Mar 30
Waning Gibbous
Apr 3
Last Quarter
Apr 10
New
Apr 18
First Quarter
Apr 25
Full

Hourly Weather History & Observations

Time (EDT) Temp. Windchill Dew Point Humidity Pressure Visibility Wind Dir Wind Speed Gust Speed Precip Events Conditions
12:53 AM 30.9 °F - 26.1 °F 82% 30.12 in 10.0 mi Calm Calm - N/A   Clear
1:53 AM 32.0 °F 28.7 °F 25.0 °F 75% 30.12 in 10.0 mi SE 3.5 mph - N/A   Partly Cloudy
2:53 AM 30.9 °F - 26.1 °F 82% 30.12 in 10.0 mi Calm Calm - N/A   Overcast
3:53 AM 32.0 °F - 26.1 °F 79% 30.12 in 10.0 mi Calm Calm - N/A   Partly Cloudy
4:53 AM 28.9 °F - 25.0 °F 85% 30.12 in 10.0 mi Calm Calm - N/A   Clear
5:53 AM 28.0 °F 24.2 °F 24.1 °F 85% 30.13 in 10.0 mi SW 3.5 mph - N/A   Clear
6:53 AM 30.0 °F - 25.0 °F 82% 30.14 in 10.0 mi Calm Calm - N/A   Clear
7:53 AM 33.1 °F - 28.0 °F 82% 30.15 in 10.0 mi Calm Calm - N/A   Clear
8:53 AM 42.1 °F 40.2 °F 28.9 °F 60% 30.15 in 10.0 mi NW 3.5 mph - N/A   Clear
9:53 AM 46.0 °F 43.1 °F 28.9 °F 51% 30.15 in 10.0 mi West 5.8 mph - N/A   Clear
10:53 AM 50.0 °F - 26.1 °F 39% 30.14 in 10.0 mi North 6.9 mph - N/A   Clear
11:53 AM 51.1 °F - 21.9 °F 32% 30.13 in 10.0 mi North 9.2 mph - N/A   Partly Cloudy
12:53 PM 52.0 °F - 19.9 °F 28% 30.12 in 10.0 mi Variable 6.9 mph 16.1 mph N/A   Clear
1:53 PM 54.0 °F - 19.0 °F 25% 30.09 in 10.0 mi Variable 5.8 mph - N/A   Scattered Clouds
2:53 PM 55.0 °F - 21.9 °F 28% 30.07 in 10.0 mi NW 8.1 mph - N/A   Mostly Cloudy
3:53 PM 54.0 °F - 19.9 °F 26% 30.06 in 10.0 mi Variable 4.6 mph - N/A   Overcast
4:53 PM 55.0 °F - 18.0 °F 23% 30.06 in 10.0 mi NNW 6.9 mph - N/A   Mostly Cloudy
5:53 PM 53.1 °F - 16.0 °F 23% 30.06 in 10.0 mi West 9.2 mph - N/A   Mostly Cloudy
6:53 PM 53.1 °F - 16.0 °F 23% 30.07 in 10.0 mi West 5.8 mph - N/A   Mostly Cloudy
7:53 PM 46.0 °F - 19.0 °F 34% 30.09 in 10.0 mi Calm Calm - N/A   Clear
8:53 PM 42.1 °F - 21.9 °F 45% 30.11 in 10.0 mi Calm Calm - N/A   Clear
9:53 PM 37.9 °F - 23.0 °F 55% 30.12 in 10.0 mi Calm Calm - N/A   Clear
10:53 PM 34.0 °F - 24.1 °F 67% 30.13 in 10.0 mi Calm Calm - N/A   Clear
11:53 PM 32.0 °F 28.7 °F 23.0 °F 69% 30.14 in 10.0 mi SW 3.5 mph - N/A   Clear